Regional Weather Roundup
Issued by NWS Midland/Odessa, TX

Skip options and go directly to product.
Home | Oldest Version | Next Version | Current Version | All | Text Only | Save Text | Print | Product List | Glossary On

Skip product version selection by date and time.   
684
ASUS44 KMAF 300602
RWRMAF
MIDLAND AREA WEATHER ROUNDUP
NATIONAL WEATHER SERVICE MIDLAND TX
100 AM CDT THU OCT 30 2014

...IN SOUTHWEST TEXAS AND SOUTHEAST NEW MEXICO...

CITY           SKY/WX    TMP DP  RH WIND       PRES   REMARKS
ALPINE         CLEAR     54  50  87 SW9       30.26F
ANDREWS        FAIR      58  51  77 S6        30.14F
ARTESIA        NOT AVBL
BIG SPRING     CLEAR     61  53  73 SE7       30.15F
CARLSBAD       CLEAR     58  50  75 S6        30.13F
DRYDEN           N/A     66  60  81 NE6       30.10F
FORT STOCKTON  CLEAR     61  55  81 S8        30.14F
GUAD PASS      NOT AVBL
HOBBS          CLEAR     57  54  88 SW7       30.16F
MARFA          CLEAR     50  46  87 CALM      30.25S
MIDLAND AIRPK  CLEAR     64  55  71 S7        30.14F
MIDLAND INTL   CLEAR     63  54  72 S7        30.13S
ODESSA         CLEAR     64  54  69 S7        30.14S
PECOS          CLEAR     58  51  78 CALM      30.11F
PRESIDIO       FAIR      70  55  57 N7        30.12S
SEMINOLE       CLEAR     54  48  82 CALM      30.16F
SNYDER         CLEAR     57  50  77 CALM      30.14S
WINK           CLEAR     56  48  74 NE6       30.12S
$$
...OTHER STATIONS IN TEXAS...

CITY           SKY/WX    TMP DP  RH WIND       PRES   REMARKS
ABILENE        CLEAR     60  46  59 SE9       30.13F
AMARILLO       CLEAR     51  43  74 S13       30.13F
AUSTIN         PTCLDY    58  57  97 CALM      30.11F
BROWNSVILLE    CLEAR     70  68  93 S5        30.05F
CORPUS CHRISTI MOCLDY    71  67  87 CALM      30.06F
DALLAS FTW     CLEAR     59  44  57 SE3       30.13F
DEL RIO        MOCLDY    71  63  75 SE5       30.08S
EL PASO        CLEAR     60  43  53 VRB5      30.17R
HOUSTON INT    CLEAR     62  61  96 E5        30.11F
LUBBOCK        CLEAR     51  44  77 S8        30.14F
SAN ANGELO     CLEAR     64  57  78 CALM      30.12S
SAN ANTONIO    CLEAR     70  62  76 E8        30.12S
WACO           CLEAR     57  49  74 CALM      30.13S
WICHITA FALLS  NOT AVBL
$$
...OTHER LOCATIONS IN NEW MEXICO...

CITY           SKY/WX    TMP DP  RH WIND       PRES   REMARKS
ALAMAGORDO     NOT AVBL
ALBUQUERQUE    CLEAR     59  14  17 NW6       30.26F
CANNON AFB     CLEAR     46  40  78 SW7       30.15F
CLOVIS         CLEAR     54  43  66 SW12      30.17F
HOLLOMAN AFB   CLEAR     50  32  49 CALM      30.17S
ROSWELL        CLEAR     51  47  86 SW5       30.13F
RUIDOSO        CLEAR     52  23  32 NW7       30.31F
SANTA FE       PTCLDY    42  10  27 N8        30.27F WCI  37
TRUTH OR CONSE CLEAR     55  36  48 W9        30.21F
TUCUMCARI      CLEAR     56  45  66 W9        30.08S
$$

USA.gov is the U.S. government's official web portal to all federal, state and local government web resources and services.